Satellite: NOAA-11
Catalog number: 19531
Epoch time:      08227.29720347
Element set:     279
Inclination:      098.7969 deg
RA of node:       315.8111 deg
Eccentricity:    0.0010778
Arg of perigee:   262.3444 deg
Mean anomaly:     097.6526 deg
Mean motion:   14.14875440 rev/day
Decay rate:       2.03e-06 rev/day^2
Epoch rev:            2612
Checksum:              307

Satellite: NOAA-12
Catalog number: 21263
Epoch time:      08227.52862040
Element set:     793
Inclination:      098.7690 deg
RA of node:       229.4796 deg
Eccentricity:    0.0011970
Arg of perigee:   320.7935 deg
Mean anomaly:     039.2377 deg
Mean motion:   14.25542186 rev/day
Decay rate:        2.6e-07 rev/day^2
Epoch rev:           89670
Checksum:              325

Satellite: MET-3/5
Catalog number: 21655
Epoch time:      08226.92981443
Element set:    0528
Inclination:      082.5500 deg
RA of node:       063.5847 deg
Eccentricity:    0.0012158
Arg of perigee:   227.6783 deg
Mean anomaly:     132.3309 deg
Mean motion:   13.17016523 rev/day
Decay rate:        5.1e-07 rev/day^2
Epoch rev:           81718
Checksum:              297

Satellite: MET-2/21
Catalog number: 22782
Epoch time:      08226.69930525
Element set:    0224
Inclination:      082.5445 deg
RA of node:       065.9494 deg
Eccentricity:    0.0023690
Arg of perigee:   126.4532 deg
Mean anomaly:     233.8817 deg
Mean motion:   13.83629936 rev/day
Decay rate:        6.2e-07 rev/day^2
Epoch rev:           75508
Checksum:              325

Satellite: OKEAN-4
Catalog number: 23317
Epoch time:      08226.76049791
Element set:    0667
Inclination:      082.5379 deg
RA of node:       261.3473 deg
Eccentricity:    0.0020659
Arg of perigee:   300.2909 deg
Mean anomaly:     059.6252 deg
Mean motion:   14.82628632 rev/day
Decay rate:       2.16e-06 rev/day^2
Epoch rev:           74681
Checksum:              321

Satellite: NOAA-14
Catalog number: 23455
Epoch time:      08227.36982807
Element set:     264
Inclination:      098.9435 deg
RA of node:       299.6367 deg
Eccentricity:    0.0009062
Arg of perigee:   345.4229 deg
Mean anomaly:     014.6678 deg
Mean motion:   14.13745862 rev/day
Decay rate:      -2.10e-06 rev/day^2
Epoch rev:           70257
Checksum:              332

Satellite: SICH-1
Catalog number: 23657
Epoch time:      08226.75651020
Element set:     464
Inclination:      082.5273 deg
RA of node:       042.3383 deg
Eccentricity:    0.0022408
Arg of perigee:   292.9238 deg
Mean anomaly:     066.9593 deg
Mean motion:   14.81597556 rev/day
Decay rate:       2.59e-06 rev/day^2
Epoch rev:           69874
Checksum:              332

Satellite: NOAA-15
Catalog number: 25338
Epoch time:      08227.36695852
Element set:     583
Inclination:      098.5577 deg
RA of node:       217.7560 deg
Eccentricity:    0.0009737
Arg of perigee:   228.6226 deg
Mean anomaly:     131.4127 deg
Mean motion:   14.24721089 rev/day
Decay rate:       2.10e-06 rev/day^2
Epoch rev:           53308
Checksum:              318

Satellite: RESURS
Catalog number: 25394
Epoch time:      08226.71943283
Element set:     997
Inclination:      098.3831 deg
RA of node:       268.0454 deg
Eccentricity:    0.0002430
Arg of perigee:   043.6081 deg
Mean anomaly:     316.5290 deg
Mean motion:   14.24166998 rev/day
Decay rate:       -9.0e-08 rev/day^2
Epoch rev:           52463
Checksum:              312

Satellite: FENGYUN1
Catalog number: 25730
Epoch time:      08226.98461748
Element set:    0580
Inclination:      098.7240 deg
RA of node:       200.8150 deg
Eccentricity:    0.0021760
Arg of perigee:   008.6263 deg
Mean anomaly:     351.5277 deg
Mean motion:   14.07750933 rev/day
Decay rate:       5.85e-06 rev/day^2
Epoch rev:           47709
Checksum:              306

Satellite: OKEAN-0
Catalog number: 25860
Epoch time:      08227.58321475
Element set:     445
Inclination:      097.7544 deg
RA of node:       215.5583 deg
Eccentricity:    0.0001941
Arg of perigee:   080.3027 deg
Mean anomaly:     279.8393 deg
Mean motion:   14.73532024 rev/day
Decay rate:        3.5e-07 rev/day^2
Epoch rev:           48799
Checksum:              316

Satellite: NOAA-16
Catalog number: 26536
Epoch time:      08227.36362649
Element set:      55
Inclination:      099.1603 deg
RA of node:       217.8257 deg
Eccentricity:    0.0011376
Arg of perigee:   064.8139 deg
Mean anomaly:     295.4202 deg
Mean motion:   14.12494174 rev/day
Decay rate:        2.2e-07 rev/day^2
Epoch rev:           40698
Checksum:              309

Satellite: NOAA-17
Catalog number: 27453
Epoch time:      08227.37249474
Element set:      49
Inclination:      098.5303 deg
RA of node:       290.3019 deg
Eccentricity:    0.0010801
Arg of perigee:   300.9449 deg
Mean anomaly:     059.0702 deg
Mean motion:   14.23994276 rev/day
Decay rate:        2.0e-08 rev/day^2
Epoch rev:           31908
Checksum:              297

Satellite: NOAA-18
Catalog number: 28654
Epoch time:      08227.40538163
Element set:     541
Inclination:      098.8673 deg
RA of node:       167.6243 deg
Eccentricity:    0.0014871
Arg of perigee:   145.9009 deg
Mean anomaly:     214.3132 deg
Mean motion:   14.11184249 rev/day
Decay rate:       1.90e-06 rev/day^2
Epoch rev:           16668
Checksum:              310

/EX
SB KEPS @ AMSAT  $ORB08227.M
Orbital Elements  08227.MISC

HR AMSAT ORBITAL ELEMENTS FOR MANNED AND MISCELLANEOUS SATELLITES
FROM WA5QGD FORT WORTH,TX August 14, 2008
Send Subscribe/unsubscribe to KEPS at 
http://www.amsat.org/mailman/listinfo/keps
BID: ORB08227.M
TO ALL RADIO AMATEURS BT

Satellite: HUBBLE
Catalog number: 20580
Epoch time:      08226.61608713
Element set:    0210
Inclination:      028.4696 deg
RA of node:       308.6497 deg
Eccentricity:    0.0003639
Arg of perigee:   269.8155 deg
Mean anomaly:     090.2018 deg
Mean motion:   15.00398783 rev/day
Decay rate:       2.79e-06 rev/day^2
Epoch rev:           80361
Checksum:              306

Satellite: PO-34
Catalog number: 25520
Epoch time:      08227.87159563
Element set:      58
Inclination:      028.4586 deg
RA of node:       145.8859 deg
Eccentricity:    0.0005604
Arg of perigee:   203.7885 deg
Mean anomaly:     156.2447 deg
Mean motion:   15.17217913 rev/day
Decay rate:       3.23e-06 rev/day^2
Epoch rev:           54208
Checksum:              321

Satellite: ISS
Catalog number: 25544
Epoch time:      08227.51110226
Element set:      55
Inclination:      051.6448 deg
RA of node:       076.8280 deg
Eccentricity:    0.0008059
Arg of perigee:   018.2040 deg
Mean anomaly:     075.2824 deg
Mean motion:   15.70962716 rev/day
Decay rate:     1.1863e-04 rev/day^2
Epoch rev:           55771
Checksum:              286

Satellite: CO-58
Catalog number: 28895
Epoch time:      08226.90702466
Element set:    0096
Inclination:      098.0930 deg
RA of node:       119.5328 deg
Eccentricity:    0.0016764
Arg of perigee:   227.0868 deg
Mean anomaly:     132.8934 deg
Mean motion:   14.59689284 rev/day
Decay rate:       1.73e-06 rev/day^2
Epoch rev:           14890
Checksum:              356

Satellite: NCUBE2
Catalog number: 28897
Epoch time:      08226.65916135
Element set:    0626
Inclination:      098.0881 deg
RA of node:       119.2160 deg
Eccentricity:    0.0016220
Arg of perigee:   229.6863 deg
Mean anomaly:     130.2923 deg
Mean motion:   14.59860691 rev/day
Decay rate:        5.2e-07 rev/day^2
Epoch rev:           14115
Checksum:              303

Satellite: FALCON
Catalog number: 30776
Epoch time:      08227.89709120
Element set:     375
Inclination:      035.4329 deg
RA of node:       157.4195 deg
Eccentricity:    0.0000335
Arg of perigee:   193.1661 deg
Mean anomaly:     166.9047 deg
Mean motion:   15.03033335 rev/day
Decay rate:       2.55e-06 rev/day^2
Epoch rev:            7898
Checksum:              301

Satellite: MAST
Catalog number: 31126
Epoch time:      08227.75822458
Element set:     398
Inclination:      098.0342 deg
RA of node:       289.8404 deg
Eccentricity:    0.0095663
Arg of perigee:   149.8789 deg
Mean anomaly:     210.7942 deg
Mean motion:   14.53439575 rev/day
Decay rate:       -2.0e-08 rev/day^2
Epoch rev:            7052
Checksum:              328

Satellite: CAPE1
Catalog number: 31130
Epoch time:      08226.94079526
Element set:    0392
Inclination:      098.0349 deg
RA of node:       287.9347 deg
Eccentricity:    0.0104223
Arg of perigee:   155.5204 deg
Mean anomaly:     205.0988 deg
Mean motion:   14.51984357 rev/day
Decay rate:       -5.0e-08 rev/day^2
Epoch rev:           07010
Checksum:              294

Satellite: CUTE1-7
Catalog number: 32785
Epoch time:      08227.20889243
Element set:     129
Inclination:      097.9890 deg
RA of node:       286.9761 deg
Eccentricity:    0.0014357
Arg of perigee:   312.2338 deg
Mean anomaly:     047.7652 deg
Mean motion:   14.81383393 rev/day
Decay rate:       2.42e-06 rev/day^2
Epoch rev:            1599
Checksum:              339

Satellite: COMPASS
Catalog number: 32787
Epoch time:      08227.20494650
Element set:     119
Inclination:      097.9841 deg
RA of node:       286.9205 deg
Eccentricity:    0.0015244
Arg of perigee:   313.2211 deg
Mean anomaly:     046.7724 deg
Mean motion:   14.81445934 rev/day
Decay rate:       2.64e-06 rev/day^2
Epoch rev:            1599
Checksum:              304

Satellite: AAUSAT2
Catalog number: 32788
Epoch time:      08227.87241271
Element set:     120
Inclination:      097.9850 deg
RA of node:       287.6002 deg
Eccentricity:    0.0014274
Arg of perigee:   313.4718 deg
Mean anomaly:     046.5350 deg
Mean motion:   14.81555440 rev/day
Decay rate:       2.01e-06 rev/day^2
Epoch rev:            1609
Checksum:              280

